Cloud_Cover
0 0 0 0 0 0 0 0 0 0 0 0 0 0 0 0 0 0 0 0 0 4 50 3 0 0 1 9 0 0 13 4 0 0 2 87 11 1 5 5 5 82 99 97 42 8 100 100 11
3 0 0 0 0 0 0 0 0 0 0 0 0 0 0 0 0 0 0 0 0 0 24 47 0 1 12 7 0 0 6 58 52 0 5 5 5 4 5 5 5 5 41 100 92 100 100 68 37
0 0 0 0 0 0 0 0 0 0 0 0 0 0 0 0 0 0 0 0 0 0 1 45 1 0 2 0 0 0 14 13 18 2 4 4 5 5 5 5 84 97 85 37 100 100 97 6 81
0 0 0 0 0 0 0 0 0 0 0 0 0 0 0 0 0 0 0 0 0 0 0 11 12 0 0 0 0 0 15 20 56 38 72 42 6 5 5 5 5 6 83 87 100 75 21 31 28
0 0 0 0 5 1 0 0 0 0 0 0 0 0 0 0 0 0 0 0 0 0 0 21 20 12 0 0 0 58 100 88 100 98 37 100 79 100 100 40 5 5 5 97 11 10 100 100 34
5 22 4 0 13 3 0 0 0 0 0 0 0 0 0 0 0 0 0 0 0 0 0 0 53 33 0 0 12 76 100 100 100 92 95 100 100 100 100 87 93 100 71 51 34 8 17 44 97
5 2 0 0 0 0 0 0 0 0 0 0 0 0 0 0 0 0 0 0 0 0 0 0 98 55 5 0 8 100 100 100 100 100 100 100 100 100 100 100 100 100 100 98 100 97 76 29 100
0 0 0 0 0 0 0 0 0 0 4 2 0 0 0 0 0 0 0 0 0 0 0 0 88 100 100 97 100 100 100 100 100 100 100 100 100 100 100 100 100 95 90 100 100 100 51 100 100
2 0 0 0 0 0 80 0 0 20 2 1 2 29 1 0 0 0 0 0 4 2 0 0 0 44 100 100 87 100 100 100 100 100 100 100 100 100 100 100 100 100 100 100 76 92 55 100 100
0 0 0 0 0 0 55 0 0 16 5 2 2 90 4 0 0 0 0 0 0 11 1 0 11 58 80 99 95 100 100 98 100 100 100 100 100 100 100 100 90 100 91 96 73 99 58 100 100
0 0 0 0 0 3 78 1 0 0 5 0 50 77 4 0 0 0 0 0 0 0 14 17 55 87 96 100 100 100 100 100 100 100 100 100 100 100 100 100 100 68 100 100 100 100 98 100 100
0 0 0 0 0 96 100 18 0 0 0 3 48 99 1 0 0 0 0 0 5 25 18 38 68 100 100 100 100 100 100 100 100 100 100 100 100 100 100 100 100 100 100 99 73 30 52 81 100
0 0 0 0 41 100 100 6 0 0 5 1 65 40 1 0 0 0 4 3 0 19 23 40 98 100 100 100 100 100 100 100 100 100 100 100 100 100 100 100 100 98 100 78 85 96 82 100 100
0 0 0 0 100 96 4 30 1 2 74 2 100 5 0 0 5 0 11 58 3 21 17 42 48 100 100 100 100 100 100 100 100 100 100 100 100 100 100 81 100 100 100 97 100 99 92 100 100
5 0 0 47 100 90 5 38 50 100 94 34 99 4 0 4 5 15 5 3 18 3 6 10 39 100 100 100 100 100 100 100 100 100 100 100 100 100 100 96 100 100 100 100 100 100 74 100 100
5 0 4 95 100 100 60 51 100 100 100 99 78 2 0 0 7 6 4 0 10 4 6 21 33 85 92 100 100 100 100 100 100 100 100 100 100 100 100 100 100 100 100 100 100 100 98 98 100
5 2 85 100 100 100 40 100 100 100 100 54 8 5 0 4 87 5 0 0 20 13 23 64 55 100 100 100 100 100 100 100 100 100 100 100 100 100 100 100 100 100 100 100 100 100 96 87 98
20 7 63 100 100 100 85 100 100 71 100 34 14 5 2 6 71 3 0 0 36 46 13 21 100 100 98 100 88 100 100 100 100 100 100 100 100 100 100 100 100 100 100 98 100 100 100 88 100
17 5 77 100 61 2 4 100 100 74 97 17 5 5 52 7 6 9 0 32 53 74 58 35 93 100 100 100 100 100 100 100 100 100 100 100 100 100 100 100 100 100 100 100 100 100 100 100 100
99 10 72 100 100 94 60 100 100 81 97 5 5 10 74 80 5 5 9 63 62 88 37 26 80 100 100 100 100 100 100 100 100 100 100 100 100 100 100 100 100 100 100 100 100 100 95 100 100
100 65 100 100 80 99 60 98 82 100 95 5 5 10 83 84 0 1 18 47 49 98 55 42 71 100 100 100 100 100 100 100 100 100 100 100 100 100 100 100 100 100 100 100 100 98 100 100 100
100 99 100 100 35 4 53 64 100 100 40 26 71 43 19 5 0 0 0 75 47 68 44 35 37 99 100 100 100 71 100 100 100 100 100 100 100 100 100 100 100 100 100 100 100 100 100 100 100
100 100 100 100 3 17 51 100 100 100 100 100 73 87 65 8 1 0 0 0 22 42 66 45 45 81 100 100 98 71 80 100 100 100 100 100 100 100 100 100 100 100 100 100 100 100 100 100 100
100 100 100 60 50 20 92 100 100 100 97 56 9 73 89 69 5 3 1 0 33 57 81 69 46 50 100 100 100 72 99 100 100 100 100 100 100 100 100 100 100 100 100 100 100 100 100 100 100
100 100 100 81 36 92 100 100 100 100 100 89 62 32 38 54 5 3 5 1 65 100 100 82 36 85 88 100 100 100 97 99 100 96 80 100 100 100 100 100 100 100 100 100 100 100 100 100 100
100 100 100 100 89 100 100 100 100 100 100 87 13 99 39 59 17 5 5 3 29 86 99 60 63 90 52 94 100 100 100 66 100 80 60 100 64 100 100 100 100 100 100 100 100 100 100 100 100
100 100 100 100 100 100 97 100 100 80 100 80 24 12 90 33 90 32 5 5 2 53 47 26 53 55 58 49 92 97 81 42 0 92 100 100 29 99 100 100 100 100 100 100 100 100 100 100 100
100 100 100 100 100 100 100 100 100 95 100 100 5 5 66 100 100 30 4 5 100 100 100 17 5 17 28 31 65 90 33 32 36 15 0 5 100 68 100 100 100 100 99 100 100 99 100 100 85
100 100 100 100 100 100 100 100 100 100 33 76 7 74 100 100 100 100 100 100 46 100 100 55 26 24 6 35 44 29 97 49 99 96 27 0 0 4 74 100 100 100 100 100 100 91 83 93 72
100 100 100 100 100 100 100 100 100 100 100 100 99 87 81 100 100 100 100 100 100 100 100 60 74 78 99 94 22 16 10 42 100 100 100 97 6 0 5 4 30 94 100 100 100 100 99 86 100